| time (UTC) | temp F | wind direction | speed knots | gust knots | rain 1hr in | rain 24hr in | rain mn in | humidity % | barometer mb |
| 20260508004527 | 62 | 359 | 0.0 | 1.7 | 0.00 | 0.00 | 0.00 | 57 | 1011.4 |
| 20260508004028 | 62 | 359 | 0.0 | 1.7 | 0.00 | 0.00 | 0.00 | 57 | 1011.4 |
| 20260508003528 | 63 | 359 | 0.9 | 2.6 | 0.00 | 0.00 | 0.00 | 55 | 1011.4 |
| 20260508003027 | 63 | 359 | 0.0 | 2.6 | 0.00 | 0.00 | 0.00 | 54 | 1011.5 |
| 20260508002526 | 63 | 359 | 0.0 | 2.6 | 0.00 | 0.00 | 0.00 | 53 | 1011.5 |
| 20260508002029 | 64 | 359 | 0.0 | 2.6 | 0.00 | 0.00 | 0.00 | 53 | 1011.5 |
| 20260508001526 | 64 | 359 | 0.9 | 4.3 | 0.00 | 0.00 | 0.00 | 55 | 1011.5 |
| 20260508001025 | 64 | 359 | 0.9 | 4.3 | 0.00 | 0.00 | 0.00 | 53 | 1011.5 |
| 20260508000529 | 64 | 359 | 0.9 | 2.6 | 0.00 | 0.00 | 0.00 | 54 | 1011.6 |
| 20260508000025 | 63 | 359 | 0.9 | 4.3 | 0.00 | 0.00 | 0.00 | 57 | 1011.6 |
| 20260507235527 | 63 | 359 | 1.7 | 3.5 | 0.00 | 0.00 | 0.00 | 56 | 1011.6 |
| 20260507235024 | 63 | 359 | 0.9 | 3.5 | 0.00 | 0.00 | 0.00 | 59 | 1011.5 |
| 20260507234537 | 62 | 359 | 0.0 | 5.2 | 0.00 | 0.00 | 0.00 | 59 | 1011.5 |
| 20260507234024 | 62 | 359 | 0.0 | 5.2 | 0.00 | 0.00 | 0.00 | 59 | 1011.6 |
| 20260507233524 | 62 | 359 | 1.7 | 4.3 | 0.00 | 0.00 | 0.00 | 59 | 1011.6 |
| 20260507233024 | 62 | 359 | 0.9 | 4.3 | 0.00 | 0.00 | 0.00 | 60 | 1011.6 |
| 20260507232525 | 62 | 359 | 0.0 | 4.3 | 0.00 | 0.00 | 0.00 | 60 | 1011.7 |
| 20260507232023 | 62 | 359 | 0.9 | 5.2 | 0.00 | 0.00 | 0.00 | 60 | 1011.6 |
| 20260507231523 | 62 | 359 | 2.6 | 5.2 | 0.00 | 0.00 | 0.00 | 59 | 1011.8 |
| 20260507231023 | 62 | 359 | 0.9 | 4.3 | 0.00 | 0.00 | 0.00 | 60 | 1011.7 |
| 20260507230523 | 62 | 359 | 0.9 | 7.0 | 0.00 | 0.00 | 0.00 | 60 | 1011.7 |
| 20260507230022 | 62 | 359 | 1.7 | 3.5 | 0.00 | 0.00 | 0.00 | 61 | 1011.7 |
| 20260507225523 | 62 | 359 | 0.0 | 2.6 | 0.00 | 0.00 | 0.00 | 63 | 1011.8 |
| 20260507225024 | 62 | 359 | 0.0 | 2.6 | 0.00 | 0.00 | 0.00 | 64 | 1011.8 |
| 20260507224526 | 62 | 359 | 0.0 | 3.5 | 0.00 | 0.00 | 0.00 | 64 | 1011.9 |
| 20260507224021 | 62 | 359 | 0.9 | 3.5 | 0.00 | 0.00 | 0.00 | 65 | 1011.9 |
| 20260507223521 | 62 | 359 | 0.9 | 3.5 | 0.00 | 0.00 | 0.00 | 66 | 1012.0 |
| 20260507223021 | 61 | 359 | 0.9 | 2.6 | 0.00 | 0.00 | 0.00 | 67 | 1012.0 |
| 20260507222521 | 61 | 359 | 0.0 | 2.6 | 0.00 | 0.00 | 0.00 | 67 | 1011.9 |
| 20260507222020 | 61 | 359 | 0.9 | 2.6 | 0.00 | 0.00 | 0.00 | 65 | 1012.0 |
| 20260507221520 | 61 | 359 | 0.9 | 2.6 | 0.00 | 0.00 | 0.00 | 67 | 1012.1 |
| 20260507221020 | 62 | 359 | 1.7 | 7.8 | 0.00 | 0.00 | 0.00 | 65 | 1012.1 |
| 20260507220519 | 63 | 359 | 0.9 | 7.8 | 0.00 | 0.00 | 0.00 | 58 | 1012.1 |
| 20260507220019 | 63 | 359 | 0.0 | 1.7 | 0.00 | 0.00 | 0.00 | 57 | 1012.1 |
| 20260507215522 | 63 | 359 | 0.9 | 3.5 | 0.00 | 0.00 | 0.00 | 55 | 1012.0 |
| 20260507215018 | 64 | 22 | 0.9 | 3.5 | 0.00 | 0.00 | 0.00 | 55 | 1012.0 |
| 20260507214524 | 64 | 18 | 1.7 | 5.2 | 0.00 | 0.00 | 0.00 | 56 | 1012.0 |
| 20260507214019 | 64 | 32 | 1.7 | 4.3 | 0.00 | 0.00 | 0.00 | 55 | 1012.0 |
| 20260507213519 | 64 | 70 | 0.9 | 9.6 | 0.00 | 0.00 | 0.00 | 56 | 1012.1 |
| 20260507213020 | 63 | 359 | 3.5 | 9.6 | 0.00 | 0.00 | 0.00 | 56 | 1012.1 |
| 20260507212517 | 63 | 359 | 2.6 | 7.8 | 0.00 | 0.00 | 0.00 | 57 | 1012.2 |
| 20260507212017 | 63 | 139 | 1.7 | 7.0 | 0.00 | 0.00 | 0.00 | 56 | 1012.2 |
| 20260507211517 | 63 | 359 | 1.7 | 7.0 | 0.00 | 0.00 | 0.00 | 57 | 1012.2 |
| 20260507211015 | 63 | 359 | 0.9 | 5.2 | 0.00 | 0.00 | 0.00 | 57 | 1012.4 |
| 20260507210521 | 63 | 359 | 1.7 | 5.2 | 0.00 | 0.00 | 0.00 | 57 | 1012.4 |
| 20260507210016 | 62 | 359 | 0.0 | 4.3 | 0.00 | 0.00 | 0.00 | 57 | 1012.4 |
| 20260507205516 | 62 | 359 | 0.9 | 5.2 | 0.00 | 0.00 | 0.00 | 57 | 1012.4 |
| 20260507205016 | 62 | 359 | 0.9 | 10.4 | 0.00 | 0.00 | 0.00 | 57 | 1012.3 |
| 20260507204515 | 62 | 359 | 2.6 | 10.4 | 0.00 | 0.00 | 0.00 | 57 | 1012.4 |
| 20260507204015 | 62 | 359 | 4.3 | 13.9 | 0.00 | 0.00 | 0.00 | 57 | 1012.4 |
| 20260507203521 | 63 | 359 | 3.5 | 13.9 | 0.00 | 0.00 | 0.00 | 56 | 1012.4 |
| 20260507203015 | 63 | 359 | 3.5 | 9.6 | 0.00 | 0.00 | 0.00 | 57 | 1012.5 |
| 20260507202517 | 63 | 359 | 2.6 | 8.7 | 0.00 | 0.00 | 0.00 | 57 | 1012.4 |
| 20260507202014 | 63 | 359 | 1.7 | 8.7 | 0.00 | 0.00 | 0.00 | 60 | 1012.5 |
| 20260507201514 | 63 | 359 | 3.5 | 8.7 | 0.00 | 0.00 | 0.00 | 59 | 1012.5 |
| 20260507201015 | 62 | 359 | 2.6 | 8.7 | 0.00 | 0.00 | 0.00 | 61 | 1012.6 |
| 20260507200513 | 62 | 359 | 1.7 | 8.7 | 0.00 | 0.00 | 0.00 | 62 | 1012.5 |
| 20260507200013 | 62 | 359 | 3.5 | 8.7 | 0.00 | 0.00 | 0.00 | 62 | 1012.6 |
| 20260507195512 | 62 | 359 | 0.9 | 7.0 | 0.00 | 0.00 | 0.00 | 61 | 1012.8 |
| 20260507195013 | 62 | 359 | 2.6 | 7.0 | 0.00 | 0.00 | 0.00 | 60 | 1012.8 |
| 20260507194513 | 63 | 359 | 1.7 | 8.7 | 0.00 | 0.00 | 0.00 | 59 | 1012.8 |
| 20260507194012 | 63 | 359 | 3.5 | 8.7 | 0.00 | 0.00 | 0.00 | 58 | 1012.9 |
| 20260507193513 | 63 | 359 | 1.7 | 7.8 | 0.00 | 0.00 | 0.00 | 61 | 1012.8 |
| 20260507193010 | 63 | 359 | 2.6 | 7.8 | 0.00 | 0.00 | 0.00 | 61 | 1012.8 |
| 20260507192509 | 63 | 359 | 1.7 | 7.0 | 0.00 | 0.00 | 0.00 | 60 | 1012.8 |
| 20260507192009 | 63 | 359 | 1.7 | 7.0 | 0.00 | 0.00 | 0.00 | 62 | 1012.9 |
| 20260507191508 | 62 | 359 | 0.9 | 5.2 | 0.00 | 0.00 | 0.00 | 64 | 1013.0 |
| 20260507191006 | 61 | 359 | 1.7 | 4.3 | 0.00 | 0.00 | 0.00 | 66 | 1013.0 |
| 20260507190506 | 60 | 359 | 0.9 | 7.0 | 0.00 | 0.00 | 0.00 | 68 | 1013.1 |
| 20260507190005 | 60 | 359 | 2.6 | 7.0 | 0.00 | 0.00 | 0.00 | 66 | 1013.1 |
| 20260507185503 | 60 | 359 | 0.9 | 8.7 | 0.00 | 0.00 | 0.00 | 68 | 1013.1 |
| 20260507185003 | 60 | 359 | 2.6 | 7.8 | 0.00 | 0.00 | 0.00 | 68 | 1013.2 |
| 20260507184504 | 59 | 359 | 0.9 | 2.6 | 0.00 | 0.00 | 0.00 | 68 | 1013.3 |
| 20260507184004 | 59 | 359 | 0.0 | 2.6 | 0.00 | 0.00 | 0.00 | 68 | 1013.3 |
| 20260507183503 | 59 | 359 | 0.0 | 1.7 | 0.00 | 0.00 | 0.00 | 67 | 1013.2 |
| 20260507183004 | 60 | 359 | 0.0 | 2.6 | 0.00 | 0.00 | 0.00 | 68 | 1013.1 |
| 20260507182503 | 60 | 359 | 0.0 | 4.3 | 0.00 | 0.00 | 0.00 | 69 | 1012.9 |
| 20260507182007 | 60 | 359 | 0.9 | 7.8 | 0.00 | 0.00 | 0.00 | 69 | 1013.0 |
| 20260507181505 | 60 | 359 | 1.7 | 7.8 | 0.00 | 0.00 | 0.00 | 71 | 1013.0 |
| 20260507181100 | 59 | 359 | 1.7 | 3.5 | 0.00 | 0.00 | 0.00 | 70 | 1013.0 |
| 20260507180559 | 59 | 359 | 0.9 | 5.2 | 0.00 | 0.00 | 0.00 | 72 | 1013.0 |
| 20260507180057 | 58 | 359 | 1.7 | 8.7 | 0.00 | 0.00 | 0.00 | 71 | 1013.0 |
| 20260507175556 | 58 | 359 | 1.7 | 8.7 | 0.00 | 0.00 | 0.00 | 72 | 1013.0 |
| 20260507175056 | 58 | 359 | 1.7 | 7.0 | 0.00 | 0.00 | 0.00 | 72 | 1012.9 |
| 20260507174605 | 58 | 359 | 0.9 | 8.7 | 0.00 | 0.00 | 0.00 | 73 | 1013.0 |
| 20260507174055 | 58 | 359 | 1.7 | 5.2 | 0.00 | 0.00 | 0.00 | 71 | 1013.2 |
| 20260507173554 | 58 | 359 | 1.7 | 7.8 | 0.00 | 0.00 | 0.00 | 73 | 1013.3 |
| 20260507173054 | 58 | 359 | 2.6 | 7.8 | 0.00 | 0.00 | 0.00 | 71 | 1013.2 |
| 20260507172556 | 58 | 359 | 2.6 | 7.8 | 0.00 | 0.00 | 0.00 | 72 | 1013.4 |
| 20260507172054 | 57 | 359 | 0.9 | 9.6 | 0.00 | 0.00 | 0.00 | 71 | 1013.3 |
| 20260507171603 | 57 | 359 | 1.7 | 9.6 | 0.00 | 0.00 | 0.00 | 70 | 1013.3 |
| 20260507171051 | 57 | 359 | 2.6 | 8.7 | 0.00 | 0.00 | 0.00 | 73 | 1013.4 |
| 20260507170552 | 56 | 359 | 1.7 | 4.3 | 0.00 | 0.00 | 0.00 | 74 | 1013.5 |
| 20260507170052 | 56 | 359 | 1.7 | 5.2 | 0.00 | 0.00 | 0.00 | 76 | 1013.6 |
| 20260507165550 | 56 | 359 | 0.9 | 5.2 | 0.00 | 0.00 | 0.00 | 77 | 1013.8 |
| 20260507165052 | 56 | 359 | 2.6 | 5.2 | 0.00 | 0.00 | 0.00 | 75 | 1013.8 |
| 20260507164549 | 55 | 359 | 1.7 | 4.3 | 0.00 | 0.00 | 0.00 | 74 | 1013.8 |
| 20260507164048 | 55 | 359 | 0.9 | 2.6 | 0.00 | 0.00 | 0.00 | 78 | 1013.7 |
| 20260507163547 | 54 | 359 | 0.0 | 2.6 | 0.00 | 0.00 | 0.00 | 77 | 1013.8 |
| 20260507163046 | 54 | 359 | 0.0 | 3.5 | 0.00 | 0.00 | 0.00 | 79 | 1013.8 |
| 20260507162545 | 54 | 359 | 0.0 | 2.6 | 0.00 | 0.00 | 0.00 | 80 | 1013.9 |
| 20260507162045 | 53 | 359 | 0.0 | 2.6 | 0.00 | 0.00 | 0.00 | 79 | 1013.9 |
| 20260507161544 | 53 | 359 | 0.0 | 1.7 | 0.00 | 0.00 | 0.00 | 82 | 1013.9 |
| 20260507161042 | 53 | 359 | 0.0 | 4.3 | 0.00 | 0.00 | 0.00 | 80 | 1013.9 |
| 20260507160542 | 54 | 359 | 0.9 | 2.6 | 0.00 | 0.00 | 0.00 | 79 | 1013.9 |
| 20260507160046 | 54 | 359 | 0.9 | 3.5 | 0.00 | 0.00 | 0.00 | 80 | 1013.9 |
| 20260507155541 | 54 | 359 | 0.0 | 4.3 | 0.00 | 0.00 | 0.00 | 80 | 1013.8 |
| 20260507155041 | 54 | 359 | 0.9 | 2.6 | 0.00 | 0.00 | 0.00 | 79 | 1013.7 |
| 20260507154541 | 54 | 359 | 0.9 | 4.3 | 0.00 | 0.00 | 0.00 | 79 | 1013.6 |
| 20260507154040 | 54 | 359 | 0.9 | 4.3 | 0.00 | 0.00 | 0.00 | 80 | 1013.6 |
| 20260507153539 | 54 | 359 | 0.9 | 3.5 | 0.00 | 0.00 | 0.00 | 79 | 1013.5 |
| 20260507153039 | 54 | 359 | 0.9 | 3.5 | 0.00 | 0.00 | 0.00 | 80 | 1013.5 |
| 20260507152540 | 53 | 359 | 1.7 | 5.2 | 0.00 | 0.00 | 0.00 | 80 | 1013.3 |
| 20260507152040 | 53 | 359 | 0.9 | 5.2 | 0.00 | 0.00 | 0.00 | 80 | 1013.3 |
| 20260507151540 | 52 | 359 | 0.9 | 5.2 | 0.00 | 0.00 | 0.00 | 82 | 1013.2 |
| 20260507151038 | 51 | 359 | 0.0 | 1.7 | 0.00 | 0.00 | 0.00 | 85 | 1013.2 |
| 20260507150538 | 51 | 359 | 0.0 | 1.7 | 0.00 | 0.00 | 0.00 | 86 | 1013.3 |
| 20260507150039 | 50 | 359 | 0.0 | 0.9 | 0.00 | 0.00 | 0.00 | 86 | 1013.3 |
| 20260507145537 | 50 | 359 | 0.0 | 0.9 | 0.00 | 0.00 | 0.00 | 87 | 1013.2 |
| 20260507145037 | 50 | 359 | 0.0 | 0.9 | 0.00 | 0.00 | 0.00 | 88 | 1013.1 |
| 20260507144600 | 49 | 359 | 0.0 | 0.0 | 0.00 | 0.00 | 0.00 | 89 | 1013.2 |
| 20260507144038 | 49 | 359 | 0.0 | 0.0 | 0.00 | 0.00 | 0.00 | 90 | 1013.3 |
| 20260507143537 | 49 | 359 | 0.0 | 0.9 | 0.00 | 0.00 | 0.00 | 91 | 1013.2 |
| 20260507143037 | 49 | 359 | 0.0 | 0.9 | 0.00 | 0.00 | 0.00 | 90 | 1013.1 |
| 20260507142537 | 48 | 359 | 0.0 | 0.9 | 0.00 | 0.00 | 0.00 | 91 | 1013.1 |
| 20260507142037 | 48 | 359 | 0.0 | 0.9 | 0.00 | 0.00 | 0.00 | 90 | 1013.2 |
| 20260507141540 | 48 | 359 | 0.0 | 0.9 | 0.00 | 0.00 | 0.00 | 90 | 1013.1 |
| 20260507141036 | 47 | 359 | 0.0 | 1.7 | 0.00 | 0.00 | 0.00 | 90 | 1013.1 |
| 20260507140536 | 47 | 359 | 0.0 | 1.7 | 0.00 | 0.00 | 0.00 | 90 | 1013.1 |
| 20260507140035 | 47 | 359 | 0.0 | 1.7 | 0.00 | 0.00 | 0.00 | 90 | 1013.0 |
| 20260507135535 | 47 | 359 | 0.9 | 2.6 | 0.00 | 0.00 | 0.00 | 90 | 1013.1 |
| 20260507135035 | 47 | 359 | 0.9 | 2.6 | 0.00 | 0.00 | 0.00 | 90 | 1013.1 |
| 20260507134535 | 46 | 359 | 0.9 | 2.6 | 0.00 | 0.00 | 0.00 | 90 | 1012.9 |
| 20260507134034 | 46 | 359 | 0.9 | 2.6 | 0.00 | 0.00 | 0.00 | 90 | 1012.9 |
| 20260507133534 | 46 | 359 | 0.9 | 1.7 | 0.00 | 0.00 | 0.00 | 90 | 1012.8 |
| 20260507133037 | 46 | 359 | 0.0 | 2.6 | 0.00 | 0.00 | 0.00 | 91 | 1012.7 |
| 20260507132534 | 46 | 359 | 0.9 | 3.5 | 0.00 | 0.00 | 0.00 | 91 | 1012.7 |
| 20260507132034 | 46 | 359 | 1.7 | 3.5 | 0.00 | 0.00 | 0.00 | 91 | 1012.7 |
| 20260507131535 | 46 | 359 | 0.0 | 4.3 | 0.00 | 0.00 | 0.00 | 91 | 1012.6 |
| 20260507131035 | 46 | 359 | 1.7 | 4.3 | 0.00 | 0.00 | 0.00 | 91 | 1012.6 |
| 20260507130534 | 46 | 359 | 2.6 | 5.2 | 0.00 | 0.00 | 0.00 | 90 | 1012.6 |
| 20260507130032 | 46 | 359 | 3.5 | 5.2 | 0.00 | 0.00 | 0.00 | 90 | 1012.5 |
| 20260507125531 | 45 | 359 | 2.6 | 5.2 | 0.00 | 0.00 | 0.00 | 91 | 1012.6 |
| 20260507125033 | 45 | 359 | 0.9 | 2.6 | 0.00 | 0.00 | 0.00 | 91 | 1012.5 |
| 20260507124530 | 46 | 359 | 0.0 | 3.5 | 0.00 | 0.00 | 0.00 | 90 | 1012.5 |
| 20260507124033 | 46 | 359 | 1.7 | 3.5 | 0.00 | 0.00 | 0.00 | 90 | 1012.5 |
| 20260507123529 | 46 | 359 | 1.7 | 4.3 | 0.00 | 0.00 | 0.00 | 91 | 1012.4 |
| 20260507123029 | 46 | 359 | 1.7 | 4.3 | 0.00 | 0.00 | 0.00 | 91 | 1012.4 |
| 20260507122527 | 46 | 359 | 0.9 | 3.5 | 0.00 | 0.00 | 0.00 | 90 | 1012.4 |
| 20260507122027 | 46 | 359 | 0.9 | 2.6 | 0.00 | 0.00 | 0.00 | 90 | 1012.4 |
| 20260507121527 | 46 | 359 | 0.0 | 2.6 | 0.00 | 0.00 | 0.00 | 90 | 1012.4 |
| 20260507121026 | 46 | 359 | 0.9 | 2.6 | 0.00 | 0.00 | 0.00 | 89 | 1012.4 |
| 20260507120524 | 46 | 359 | 0.0 | 3.5 | 0.00 | 0.00 | 0.00 | 89 | 1012.4 |
| 20260507120024 | 47 | 359 | 0.9 | 4.3 | 0.00 | 0.00 | 0.00 | 88 | 1012.3 |
| 20260507115523 | 47 | 359 | 2.6 | 4.3 | 0.00 | 0.00 | 0.00 | 88 | 1012.3 |
| 20260507115022 | 47 | 359 | 0.9 | 3.5 | 0.00 | 0.00 | 0.00 | 89 | 1012.3 |
| 20260507114523 | 47 | 359 | 1.7 | 5.2 | 0.00 | 0.00 | 0.00 | 90 | 1012.3 |
| 20260507114023 | 47 | 359 | 2.6 | 5.2 | 0.00 | 0.00 | 0.00 | 90 | 1012.3 |
| 20260507113521 | 47 | 359 | 1.7 | 4.3 | 0.00 | 0.00 | 0.00 | 89 | 1012.2 |
| 20260507113023 | 47 | 359 | 1.7 | 3.5 | 0.00 | 0.00 | 0.00 | 89 | 1012.2 |
| 20260507112522 | 47 | 359 | 0.9 | 2.6 | 0.00 | 0.00 | 0.00 | 88 | 1012.3 |
| 20260507112023 | 48 | 359 | 0.9 | 1.7 | 0.00 | 0.00 | 0.00 | 88 | 1012.3 |
| 20260507111533 | 48 | 359 | 0.0 | 1.7 | 0.00 | 0.00 | 0.00 | 88 | 1012.3 |
| 20260507111017 | 48 | 359 | 0.9 | 1.7 | 0.00 | 0.00 | 0.00 | 88 | 1012.3 |
| 20260507110517 | 48 | 359 | 0.9 | 1.7 | 0.00 | 0.00 | 0.00 | 87 | 1012.3 |
| 20260507110017 | 48 | 359 | 0.0 | 0.9 | 0.00 | 0.00 | 0.00 | 85 | 1012.3 |
| 20260507105515 | 48 | 359 | 0.0 | 0.9 | 0.00 | 0.00 | 0.00 | 84 | 1012.3 |
| 20260507105015 | 49 | 359 | 0.0 | 0.9 | 0.00 | 0.00 | 0.00 | 84 | 1012.2 |
| 20260507104514 | 49 | 359 | 0.0 | 1.7 | 0.00 | 0.00 | 0.00 | 84 | 1012.2 |
| 20260507104015 | 49 | 359 | 0.9 | 1.7 | 0.00 | 0.00 | 0.00 | 83 | 1012.3 |
| 20260507103513 | 50 | 359 | 0.0 | 0.9 | 0.00 | 0.00 | 0.00 | 83 | 1012.2 |
| 20260507103011 | 50 | 359 | 0.0 | 1.7 | 0.00 | 0.00 | 0.00 | 83 | 1012.2 |
| 20260507102512 | 50 | 359 | 0.0 | 2.6 | 0.00 | 0.00 | 0.00 | 82 | 1012.3 |
| 20260507102011 | 50 | 359 | 0.9 | 2.6 | 0.00 | 0.00 | 0.00 | 80 | 1012.2 |
| 20260507101511 | 51 | 359 | 0.9 | 2.6 | 0.00 | 0.00 | 0.00 | 80 | 1012.2 |
| 20260507101009 | 51 | 359 | 0.0 | 2.6 | 0.00 | 0.00 | 0.00 | 80 | 1012.2 |
| 20260507100509 | 52 | 359 | 0.9 | 3.5 | 0.00 | 0.00 | 0.00 | 78 | 1012.2 |
| 20260507100012 | 53 | 359 | 0.9 | 3.5 | 0.00 | 0.00 | 0.00 | 77 | 1012.3 |
| 20260507095511 | 54 | 359 | 1.7 | 5.2 | 0.00 | 0.00 | 0.00 | 75 | 1012.2 |
| 20260507095011 | 54 | 359 | 2.6 | 5.2 | 0.00 | 0.00 | 0.00 | 74 | 1012.3 |
| 20260507094509 | 54 | 359 | 2.6 | 7.0 | 0.00 | 0.00 | 0.00 | 74 | 1012.5 |
| 20260507094010 | 54 | 359 | 4.3 | 7.0 | 0.00 | 0.00 | 0.00 | 75 | 1012.6 |
| 20260507093508 | 53 | 359 | 3.5 | 5.2 | 0.00 | 0.00 | 0.00 | 76 | 1012.7 |
| 20260507093009 | 53 | 359 | 0.9 | 4.3 | 0.00 | 0.00 | 0.00 | 77 | 1012.7 |
| 20260507092508 | 51 | 359 | 2.6 | 4.3 | 0.00 | 0.00 | 0.00 | 78 | 1012.6 |
| 20260507092010 | 50 | 359 | 0.0 | 2.6 | 0.00 | 0.00 | 0.00 | 83 | 1012.6 |
| 20260507091508 | 50 | 359 | 0.0 | 2.6 | 0.00 | 0.00 | 0.00 | 86 | 1012.6 |
| 20260507091009 | 50 | 359 | 0.0 | 1.7 | 0.00 | 0.00 | 0.00 | 86 | 1012.4 |
| 20260507090507 | 50 | 359 | 0.0 | 3.5 | 0.00 | 0.00 | 0.00 | 87 | 1012.4 |
| 20260507090011 | 50 | 359 | 0.9 | 3.5 | 0.00 | 0.00 | 0.00 | 88 | 1012.4 |
| 20260507085506 | 50 | 359 | 0.9 | 2.6 | 0.00 | 0.00 | 0.00 | 87 | 1012.4 |
| 20260507085005 | 50 | 359 | 0.0 | 3.5 | 0.00 | 0.00 | 0.00 | 85 | 1012.4 |
| 20260507084504 | 51 | 359 | 0.9 | 3.5 | 0.00 | 0.00 | 0.00 | 85 | 1012.1 |
| 20260507084002 | 51 | 359 | 0.9 | 2.6 | 0.00 | 0.00 | 0.00 | 83 | 1012.1 |
| 20260507083502 | 52 | 359 | 0.9 | 3.5 | 0.00 | 0.00 | 0.00 | 82 | 1012.2 |
| 20260507083002 | 53 | 359 | 0.0 | 9.6 | 0.00 | 0.00 | 0.00 | 80 | 1012.1 |
| 20260507082500 | 53 | 359 | 3.5 | 9.6 | 0.00 | 0.00 | 0.00 | 73 | 1012.2 |
| 20260507082000 | 54 | 359 | 0.9 | 5.2 | 0.00 | 0.00 | 0.00 | 75 | 1012.2 |
| 20260507081600 | 54 | 359 | 0.9 | 5.2 | 0.00 | 0.00 | 0.00 | 73 | 1012.1 |
| 20260507081100 | 54 | 359 | 2.6 | 7.0 | 0.00 | 0.00 | 0.00 | 73 | 1012.3 |
| 20260507080600 | 54 | 359 | 2.6 | 7.0 | 0.00 | 0.00 | 0.00 | 72 | 1012.5 |
| 20260507075559 | 53 | 359 | 0.0 | 2.6 | 0.00 | 0.00 | 0.00 | 74 | 1012.6 |
| 20260507075059 | 53 | 359 | 0.0 | 2.6 | 0.00 | 0.00 | 0.00 | 76 | 1012.5 |
| 20260507074559 | 52 | 359 | 0.0 | 2.6 | 0.00 | 0.00 | 0.00 | 76 | 1012.6 |
| 20260507074058 | 52 | 359 | 0.9 | 3.5 | 0.00 | 0.00 | 0.00 | 77 | 1012.7 |
| 20260507073558 | 52 | 359 | 0.9 | 3.5 | 0.00 | 0.00 | 0.00 | 78 | 1012.7 |
| 20260507073103 | 52 | 359 | 0.0 | 1.7 | 0.00 | 0.00 | 0.00 | 77 | 1012.6 |
| 20260507072557 | 52 | 359 | 0.0 | 2.6 | 0.00 | 0.00 | 0.00 | 79 | 1012.4 |
| 20260507072057 | 52 | 359 | 0.9 | 3.5 | 0.00 | 0.00 | 0.00 | 79 | 1012.3 |
| 20260507071558 | 51 | 359 | 1.7 | 4.3 | 0.00 | 0.00 | 0.00 | 77 | 1011.9 |
| 20260507071055 | 52 | 359 | 2.6 | 4.3 | 0.00 | 0.00 | 0.00 | 80 | 1012.1 |
| 20260507070554 | 52 | 359 | 0.9 | 4.3 | 0.00 | 0.00 | 0.00 | 78 | 1012.3 |
| 20260507070058 | 52 | 359 | 1.7 | 4.3 | 0.00 | 0.00 | 0.00 | 78 | 1012.5 |
| 20260507065552 | 53 | 359 | 0.0 | 4.3 | 0.00 | 0.00 | 0.00 | 77 | 1012.7 |
| 20260507065050 | 53 | 359 | 0.9 | 7.0 | 0.00 | 0.00 | 0.00 | 74 | 1012.6 |
| 20260507064551 | 54 | 359 | 2.6 | 26.9 | 0.00 | 0.00 | 0.00 | 72 | 1013.0 |
| 20260507064048 | 55 | 359 | 12.2 | 34.8 | 0.00 | 0.00 | 0.00 | 71 | 1013.3 |
| 20260507063550 | 57 | 359 | 26.1 | 34.8 | 0.00 | 0.00 | 0.00 | 65 | 1013.0 |
| 20260507063049 | 58 | 359 | 19.1 | 29.5 | 0.00 | 0.00 | 0.00 | 60 | 1012.8 |
| 20260507062544 | 58 | 359 | 9.6 | 17.4 | 0.00 | 0.00 | 0.00 | 60 | 1012.8 |
| 20260507062043 | 58 | 359 | 12.2 | 17.4 | 0.00 | 0.00 | 0.00 | 62 | 1012.6 |
| 20260507061543 | 59 | 359 | 11.3 | 19.1 | 0.00 | 0.00 | 0.00 | 61 | 1012.6 |
| 20260507061042 | 58 | 359 | 8.7 | 15.6 | 0.00 | 0.00 | 0.00 | 60 | 1012.7 |
| 20260507060539 | 58 | 359 | 7.8 | 14.8 | 0.00 | 0.00 | 0.00 | 64 | 1012.8 |
| 20260507060048 | 57 | 359 | 7.0 | 10.4 | 0.00 | 0.00 | 0.00 | 59 | 1012.8 |
| 20260507055539 | 58 | 359 | 1.7 | 5.2 | 0.00 | 0.00 | 0.00 | 58 | 1012.7 |
| 20260507055037 | 58 | 359 | 0.9 | 7.0 | 0.00 | 0.00 | 0.00 | 57 | 1012.4 |
| 20260507054546 | 57 | 359 | 1.7 | 7.0 | 0.00 | 0.00 | 0.00 | 57 | 1012.5 |
| 20260507054038 | 57 | 359 | 2.6 | 5.2 | 0.00 | 0.00 | 0.00 | 58 | 1012.7 |
| 20260507053538 | 57 | 359 | 0.9 | 7.8 | 0.00 | 0.00 | 0.00 | 60 | 1012.5 |
| 20260507053040 | 57 | 359 | 3.5 | 7.8 | 0.00 | 0.00 | 0.00 | 60 | 1012.6 |
| 20260507052537 | 58 | 359 | 1.7 | 9.6 | 0.00 | 0.00 | 0.00 | 59 | 1012.7 |
| 20260507052037 | 58 | 359 | 3.5 | 9.6 | 0.00 | 0.00 | 0.00 | 60 | 1012.6 |
| 20260507051537 | 59 | 359 | 3.5 | 10.4 | 0.00 | 0.00 | 0.00 | 58 | 1012.8 |
| 20260507051039 | 59 | 359 | 4.3 | 15.6 | 0.00 | 0.00 | 0.00 | 57 | 1012.6 |
| 20260507050536 | 59 | 359 | 5.2 | 16.5 | 0.00 | 0.00 | 0.00 | 61 | 1012.6 |
| 20260507050138 | 59 | 359 | 7.8 | 16.5 | 0.00 | 0.00 | 0.00 | 64 | 1012.5 |
| 20260507045538 | 59 | 359 | 3.5 | 5.2 | 0.00 | 0.00 | 0.00 | 71 | 1012.1 |
| 20260507045035 | 58 | 359 | 1.7 | 4.3 | 0.00 | 0.00 | 0.00 | 70 | 1011.9 |
| 20260507044549 | 58 | 359 | 1.7 | 5.2 | 0.00 | 0.00 | 0.00 | 71 | 1011.9 |
| 20260507044035 | 58 | 359 | 1.7 | 5.2 | 0.00 | 0.00 | 0.00 | 73 | 1011.8 |
| 20260507043535 | 57 | 359 | 1.7 | 3.5 | 0.00 | 0.00 | 0.00 | 73 | 1011.9 |
| 20260507043036 | 57 | 359 | 1.7 | 5.2 | 0.00 | 0.00 | 0.00 | 74 | 1011.8 |
| 20260507042536 | 57 | 359 | 2.6 | 5.2 | 0.00 | 0.00 | 0.00 | 76 | 1011.8 |
| 20260507042037 | 57 | 359 | 0.9 | 2.6 | 0.00 | 0.00 | 0.00 | 75 | 1011.7 |
| 20260507041536 | 57 | 359 | 0.0 | 1.7 | 0.00 | 0.00 | 0.00 | 74 | 1011.6 |
| 20260507041035 | 57 | 359 | 0.9 | 1.7 | 0.00 | 0.00 | 0.00 | 73 | 1011.7 |
| 20260507040537 | 56 | 359 | 0.0 | 1.7 | 0.00 | 0.00 | 0.00 | 73 | 1011.8 |
| 20260507040036 | 56 | 359 | 0.0 | 0.9 | 0.00 | 0.00 | 0.00 | 74 | 1011.8 |
| 20260507035534 | 56 | 359 | 0.0 | 0.9 | 0.00 | 0.00 | 0.00 | 75 | 1012.0 |
| 20260507035035 | 56 | 359 | 0.0 | 0.9 | 0.00 | 0.00 | 0.00 | 76 | 1011.9 |
| 20260507034538 | 55 | 359 | 0.0 | 0.9 | 0.00 | 0.00 | 0.00 | 77 | 1011.9 |
| 20260507034033 | 56 | 359 | 0.0 | 0.9 | 0.00 | 0.00 | 0.00 | 78 | 1011.8 |
| 20260507033533 | 56 | 359 | 0.0 | 0.9 | 0.00 | 0.00 | 0.00 | 78 | 1011.8 |
| 20260507033035 | 56 | 359 | 0.0 | 0.9 | 0.00 | 0.00 | 0.00 | 79 | 1011.8 |
| 20260507032533 | 56 | 359 | 0.0 | 1.7 | 0.00 | 0.00 | 0.00 | 79 | 1011.8 |
| 20260507032035 | 56 | 359 | 0.0 | 1.7 | 0.00 | 0.00 | 0.00 | 79 | 1011.7 |
| 20260507031533 | 56 | 359 | 0.0 | 1.7 | 0.00 | 0.00 | 0.00 | 79 | 1011.7 |
| 20260507031035 | 57 | 359 | 0.0 | 2.6 | 0.00 | 0.00 | 0.00 | 82 | 1011.6 |
| 20260507030536 | 57 | 359 | 1.7 | 2.6 | 0.00 | 0.00 | 0.00 | 80 | 1011.5 |
| 20260507030032 | 57 | 359 | 0.0 | 0.9 | 0.00 | 0.00 | 0.00 | 76 | 1011.5 |
| 20260507025532 | 57 | 359 | 0.0 | 0.9 | 0.00 | 0.00 | 0.00 | 76 | 1011.5 |
| 20260507025032 | 57 | 359 | 0.0 | 0.9 | 0.00 | 0.00 | 0.00 | 73 | 1011.4 |
| 20260507024535 | 58 | 359 | 0.0 | 0.9 | 0.00 | 0.00 | 0.00 | 71 | 1011.5 |
| 20260507024033 | 58 | 359 | 0.0 | 0.0 | 0.00 | 0.00 | 0.00 | 74 | 1011.5 |
| 20260507023532 | 58 | 359 | 0.0 | 0.0 | 0.00 | 0.00 | 0.00 | 70 | 1011.6 |
| 20260507023031 | 59 | 359 | 0.0 | 0.9 | 0.00 | 0.00 | 0.00 | 70 | 1011.6 |
| 20260507022534 | 59 | 359 | 0.0 | 1.7 | 0.00 | 0.00 | 0.00 | 65 | 1011.5 |
| 20260507022031 | 59 | 359 | 0.0 | 1.7 | 0.00 | 0.00 | 0.00 | 64 | 1011.5 |
| 20260507021532 | 59 | 359 | 0.0 | 0.9 | 0.00 | 0.00 | 0.00 | 63 | 1011.5 |
| 20260507021030 | 60 | 359 | 0.0 | 0.9 | 0.00 | 0.00 | 0.00 | 63 | 1011.5 |
| 20260507020530 | 60 | 359 | 0.0 | 0.0 | 0.00 | 0.00 | 0.00 | 64 | 1011.5 |
| 20260507020040 | 60 | 359 | 0.0 | 0.0 | 0.00 | 0.00 | 0.00 | 64 | 1011.6 |
| 20260507015534 | 60 | 359 | 0.0 | 0.0 | 0.00 | 0.00 | 0.00 | 64 | 1011.5 |
| 20260507015029 | 61 | 359 | 0.0 | 0.9 | 0.00 | 0.00 | 0.00 | 65 | 1011.6 |
| 20260507014533 | 61 | 359 | 0.0 | 0.9 | 0.00 | 0.00 | 0.00 | 61 | 1011.6 |
| 20260507014032 | 61 | 359 | 0.0 | 0.9 | 0.00 | 0.00 | 0.00 | 58 | 1011.5 |
| 20260507013528 | 61 | 359 | 0.0 | 0.9 | 0.00 | 0.00 | 0.00 | 58 | 1011.6 |
| 20260507013031 | 61 | 359 | 0.0 | 0.9 | 0.00 | 0.00 | 0.00 | 57 | 1011.6 |
| 20260507012528 | 61 | 359 | 0.0 | 0.9 | 0.00 | 0.00 | 0.00 | 57 | 1011.6 |
| 20260507012028 | 61 | 359 | 0.0 | 0.9 | 0.00 | 0.00 | 0.00 | 57 | 1011.6 |
| 20260507011529 | 61 | 359 | 0.0 | 0.9 | 0.00 | 0.00 | 0.00 | 57 | 1011.6 |
| 20260507011027 | 61 | 359 | 0.0 | 0.9 | 0.00 | 0.00 | 0.00 | 57 | 1011.5 |
| 20260507010526 | 61 | 359 | 0.0 | 1.7 | 0.00 | 0.00 | 0.00 | 56 | 1011.6 |
| 20260507010029 | 61 | 359 | 0.9 | 1.7 | 0.00 | 0.00 | 0.00 | 55 | 1011.7 |
| 20260507005525 | 61 | 359 | 0.0 | 1.7 | 0.00 | 0.00 | 0.00 | 55 | 1011.6 |
| 20260507005025 | 61 | 359 | 0.0 | 1.7 | 0.00 | 0.00 | 0.00 | 55 | 1011.7 |